Regional Weather Roundup
Issued by NWS

Home | Current Version | Previous Version | Graphics & Text | Print | Product List | Glossary On
Versions: 1 2 3 4 5 6 7 8 9 10 11 12 13 14 15 16 17 18 19 20 21 22 23 24 25 26 27 28 29 30 31 32 33 34 35 36 37 38 39 40 41 42 43 44 45 46 47 48 49 50
000
ASUS43 KMPX 271701
RWRMN
WEATHER ROUNDUP FOR MINNESOTA
NATIONAL WEATHER SERVICE TWIN CITIES/CHANHASSEN MN
1200 PM CDT THU JUL 27 2017


NOTE: "FAIR" INDICATES FEW OR NO CLOUDS BELOW 12,000 FEET WITH NO
SIGNIFICANT WEATHER AND/OR OBSTRUCTIONS TO VISIBILITY. N/A MEANS
CURRENT SKY AND/OR WEATHER CONDITIONS ARE NOT AVAILABLE.

MNZ060>063-068>070-271800-
   Twin Cities Metro

CITY           SKY/WX    TMP DP  RH WIND       PRES   REMARKS
TWIN CITIES    MOSUNNY   82  59  45 CALM      30.07F
ST PAUL        SUNNY     82  61  48 NE8       30.08S
CRYSTAL        SUNNY     81  56  42 E5        30.07F
BLAINE         SUNNY     82  57  42 NE6       30.08F
LAKEVILLE      MOSUNNY   79  63  57 NE6       30.08S
EDEN PRAIRIE   SUNNY     83  58  42 MISG      30.07F
SOUTH ST PAUL  SUNNY     80  59  48 NE6       30.07F
LAKE ELMO      FAIR      81  63  54 NE6       30.09S
$$
MNZ001>005-007-008-013>017-022>024-027-028-271800-
   Northwest Minnesota

CITY           SKY/WX    TMP DP  RH WIND       PRES   REMARKS
BEMIDJI        PTSUNNY   78  56  47 N8        30.13F
HALLOCK        SUNNY     81  64  57 NW8       30.10S
ROSEAU         SUNNY     79  64  61 CALM      30.12S
WARROAD        SUNNY     77  64  65 CALM      30.12S
CROOKSTON      MOSUNNY   77  61  57 CALM      30.13F
FOSSTON        MOSUNNY   77  63  61 NW6       30.15S
DETROIT LAKES  MOSUNNY   77  59  53 N5        30.15F
MOORHEAD       SUNNY     79  61  53 N3        30.13S
PARK RAPIDS    SUNNY     79  57  46 VRB7      30.13S
MAHNOMEN       FAIR      78  62  57 CALM      30.14S
$$
MNZ006-009>011-018-025>026-271800-
   North Central Minnesota

CITY           SKY/WX    TMP DP  RH WIND       PRES   REMARKS
BAUDETTE       MOSUNNY   79  60  52 NW7       30.12
FLAG ISLAND    SUNNY     79  57  47 CALM      30.10S
INTL FALLS     SUNNY     79  60  52 VRB3      30.11S
WASKISH        SUNNY     79  64  61 W7        30.12F
BIG FORK       MOSUNNY   79  57  47 CALM      30.12F
LONGVILLE      MOSUNNY   77  61  57 W3        30.13R
GRAND RAPIDS   PTSUNNY   76  59  55 SW3       30.13F
CRANE LAKE     SUNNY     75  57  53 N3        30.12S
ORR            MOSUNNY   73  57  56 CALM      30.09S
COOK             N/A     75  61  60 CALM      30.12S
WALKER         PTSUNNY   77  60  56 NE5       30.12F
$$
MNZ012-019>021-037-271800-
   Northeast Minnesota

CITY           SKY/WX    TMP DP  RH WIND       PRES   REMARKS
DULUTH         PTSUNNY   74  58  57 E12       30.11S
ELY            CLOUDY    75  55  50 CALM      30.11F
HIBBING        MOSUNNY   77  54  44 NW5       30.11F
EVELETH        MOSUNNY   78  43  28 W3        30.12F
DULUTH HARBOR  SUNNY     73  64  73 NE7       30.10S
GRAND MARAIS     N/A     67  53  61 E5        30.11F
G MARAIS ARPRT CLOUDY    66  50  55 SE3       30.15S
$$
MNZ029>031-032-039>041-046>048-054>057-064-271800-
   West Central Minnesota

CITY           SKY/WX    TMP DP  RH WIND       PRES   REMARKS
FERGUS FALLS   MOSUNNY   79  61  53 CALM      30.12S
WHEATON        SUNNY     79  57  47 NW3       30.14F
MORRIS         MOSUNNY   79  63  57 CALM      30.12F
ALEXANDRIA     SUNNY     78  58  49 NW5       30.15S
ELBOW LAKE     FAIR      76  60  57 CALM      30.14F HAZE
WADENA         MOSUNNY   77  57  50 CALM      30.13F
GLENWOOD       SUNNY     81  57  44 E3        30.14S
APPLETON       SUNNY     79  57  47 CALM      30.12F
BENSON         MOSUNNY   81  57  44 CALM      30.14S
ORTONVILLE     MOSUNNY   79  61  53 NE5         N/A
MADISON        MOSUNNY   81  61  50 SE3       30.12F
WILLMAR        FAIR      79  63  57 N3        30.13S
$$
MNZ033>034-036-042>043-049>051-058-059-271800-
   Central Minnesota

CITY           SKY/WX    TMP DP  RH WIND       PRES   REMARKS
ST CLOUD       PTSUNNY   81  61  50 NE5       30.11S
SAUK CENTRE    FAIR      78  61  56 CALM      30.13F
PAYNESVILLE    MOSUNNY   77  58  51 N7        30.12F
AITKIN         MOSUNNY   79  61  53 N5        30.11R
PINE RIVER     MOSUNNY   77  61  57 N5        30.15S
BRAINERD       SUNNY     79  56  45 N6        30.12S
STAPLES        PTSUNNY   77  57  50 W3        30.13S
LONG PRAIRIE   FAIR      77  61  57 CALM      30.14S
LITTLE FALLS   PTSUNNY   77  59  53 CALM      30.13S
LITCHFIELD     SUNNY     81  61  50 N3        30.12S
BUFFALO        SUNNY     79  58  47 N3        30.11F
MAPLE LAKE     SUNNY     81  61  50 CALM      30.11F
HUTCHINSON     SUNNY     80  63  55 E5        30.12S
$$
MNZ037-044-045-052-053-271800-
   East Central Minnesota

CITY           SKY/WX    TMP DP  RH WIND       PRES   REMARKS
PRINCETON      SUNNY     82  61  47 W3        30.10F
MORA           MOSUNNY   77  55  47 CALM      30.12S
CAMBRIDGE      MOSUNNY   81  63  54 NW6       30.09S
RUSH CITY      SUNNY     79  60  52 NW3       30.10S
MOOSE LAKE     MOSUNNY   77  59  53 CALM      30.09S
HINCKLEY       FAIR      79  63  57 NE3       30.10F
CLOQUET        MOSUNNY   75  54  46 E5        30.11S
MCGREGOR       MOSUNNY   77  61  57 CALM      30.12S
$$
MNZ071>073-080-081-089-090-097-098-271800-
   Southwest Minnesota

CITY           SKY/WX    TMP DP  RH WIND       PRES   REMARKS
MONTEVIDEO     SUNNY     84  61  45 CALM      30.12F
CANBY          SUNNY     79  61  53 CALM      30.14F
MARSHALL       SUNNY     77  64  64 VRB6      30.13S
REDWOOD FALLS  SUNNY     80  60  50 VRB3      30.10F
OLIVIA         SUNNY     79  61  53 N5        30.11S
PIPESTONE      MOSUNNY   79  61  53 CALM      30.15S
WINDOM         SUNNY     79  61  53 N7        30.12S
WORTHINGTON    MOSUNNY   77  61  57 NE9       30.14S
JACKSON        MOSUNNY   77  61  57 CALM      30.12S
TRACY          SUNNY     76  65  67 N6        30.14S
SLAYTON        RAIN      75  59  56 NE5       30.15S
$$
MNZ065>067-074>077-082>085-091>093-271800-
   South Central Minnesota

CITY           SKY/WX    TMP DP  RH WIND       PRES   REMARKS
MANKATO        SUNNY     78  64  61 N10       30.09F
NEW ULM        SUNNY     79  61  53 N5        30.09F
ST JAMES       SUNNY     79  64  61 N5        30.11S
FAIRMONT       MOSUNNY   79  65  62 N8        30.10S
GLENCOE        SUNNY     79  66  62 N3        30.09F
FARIBAULT      SUNNY     79  66  65 NW3       30.09S
OWATONNA       MOSUNNY   79  66  65 N3        30.08S
WASECA         SUNNY     77  63  61 N5        30.10S
ALBERT LEA     SUNNY     81  63  54 NE7       30.08S
$$
MNZ078>079-086>088-094>096-271800-
   Southeast Minnesota

CITY           SKY/WX    TMP DP  RH WIND       PRES   REMARKS
ROCHESTER      MOSUNNY   78  64  61 NE7       30.08S
RED WING       SUNNY     81  57  44 N3        30.05F
STANTON        SUNNY     79  65  62 N6        30.07S
DODGE CENTER   SUNNY     79  63  57 N3        30.09S
WINONA         SUNNY     79  64  61 E3        30.05F
AUSTIN         SUNNY     81  61  50 NE8       30.07S
PRESTON        SUNNY     77  61  58 NE7       30.07S
$$
ABBREVIATIONS USED IN REMARKS
   TC - TEMPERATURES IN CELSIUS
  WCI - WIND CHILL INDEX
   HX - HEAT INDEX
  VSB - VISIBILITY
$$




USA.gov is the U.S. government's official web portal to all federal, state and local government web resources and services.